This is the latest recevied weather packets stored in our database for station/object 9A3XK-13. If no packets are shown the sender has not sent any weather packets the latest 1 day(s).
| Time | Temp. | Humidity | Pressure | Rain* | Wind** | Luminosity | Snow |
|---|---|---|---|---|---|---|---|
| 1777987515 | 27.78° C | 31% | 1011.1 hPa | 0 mm | 0.89 m/s, 203° | 287 W/m² | - |
| 1777987215 | 27.78° C | 30% | 1011.2 hPa | 0 mm | 1.79 m/s, 225° | 328 W/m² | - |
| 1777986915 | 27.78° C | 31% | 1011.3 hPa | 0 mm | 1.34 m/s, 270° | 398 W/m² | - |
| 1777986615 | 27.78° C | 32% | 1011.3 hPa | 0 mm | 0.89 m/s, 248° | 550 W/m² | - |
| 1777986315 | 28.33° C | 30% | 1011.4 hPa | 0 mm | 1.34 m/s, 225° | 404 W/m² | - |
| 1777986015 | 28.33° C | 31% | 1011.4 hPa | 0 mm | 1.79 m/s, 248° | 703 W/m² | - |
| 1777985715 | 27.78° C | 31% | 1011.5 hPa | 0 mm | 1.34 m/s, 225° | 754 W/m² | - |
| 1777985415 | 27.78° C | 33% | 1011.6 hPa | 0 mm | 1.34 m/s, 135° | 857 W/m² | - |
| 1777985118 | 27.22° C | 32% | 1011.6 hPa | 0 mm | 1.34 m/s, 203° | 690 W/m² | - |
| 1777984815 | 27.78° C | 31% | 1011.7 hPa | 0 mm | 1.79 m/s, 203° | 537 W/m² | - |
| 1777984515 | 27.78° C | 32% | 1011.8 hPa | 0 mm | 1.79 m/s, 203° | 714 W/m² | - |
| 1777984215 | 27.78° C | 32% | 1011.8 hPa | 0 mm | 1.79 m/s, 225° | 667 W/m² | - |
| 1777983915 | 28.33° C | 31% | 1011.9 hPa | 0 mm | 1.34 m/s, 225° | 444 W/m² | - |
| 1777983617 | 28.33° C | 31% | 1011.9 hPa | 0 mm | 1.79 m/s, 158° | 539 W/m² | - |
| 1777983317 | 28.33° C | 31% | 1012 hPa | 0 mm | 1.79 m/s, 203° | 728 W/m² | - |
| 1777983018 | 28.33° C | 31% | 1012.1 hPa | 0 mm | 2.24 m/s, 180° | 775 W/m² | - |
| 1777982717 | 28.33° C | 30% | 1012.2 hPa | 0 mm | 2.24 m/s, 180° | 781 W/m² | - |
| 1777982417 | 28.33° C | 31% | 1012.2 hPa | 0 mm | 1.79 m/s, 248° | 808 W/m² | - |
| 1777982117 | 28.33° C | 31% | 1012.3 hPa | 0 mm | 2.24 m/s, 225° | 846 W/m² | - |
| 1777981818 | 28.33° C | 32% | 1012.3 hPa | 0 mm | 1.79 m/s, 180° | 875 W/m² | - |
| 1777981517 | 27.78° C | 33% | 1012.4 hPa | 0 mm | 2.24 m/s, 225° | 896 W/m² | - |
| 1777981215 | 27.78° C | 32% | 1012.4 hPa | 0 mm | 1.34 m/s, 225° | 967 W/m² | - |
| 1777980917 | 27.78° C | 33% | 1012.4 hPa | 0 mm | 1.79 m/s, 158° | 1002 W/m² | - |
| 1777980617 | 27.22° C | 33% | 1012.4 hPa | 0 mm | 2.24 m/s, 180° | 1004 W/m² | - |
| 1777980317 | 27.22° C | 32% | 1012.5 hPa | 0 mm | 1.34 m/s, 225° | 990 W/m² | - |
* Rain latest hour (hover to see other rain measurements)
** Current wind speed in m/s (hover to see current wind gust speed)